Showing default

OPS 9323 (IDSCS 10), 2650

Orbit data source: Space-Track

OPS 9323 (IDSCS 10), 2650 is a payload satellite owned by USAF SSD (US) in GEO that was launched on Wed, 18 Jan 1967 UTC via a TITAN IIIC launch vehicle from the Air Force Eastern Test Range (AFETR). Payload-class satellites include a variety of spacecraft equipped with specific instruments for various scientific and technological missions. These include communications satellites like Starlink; space stations such as the ISS; scientific satellites like the Hubble; Earth observation satellites from companies like Planet Labs, Umbra, and HawkEye 360; GPS; miniature CubeSats for education and research; and military/defense satellites.

Not visible in the next 10 days
Identifier
2650, 1967-003C
Orbit
GEO
Country
Flag of USUS
Related business
Manufacturer
Philco-Ford WDL
Mission
Non-operational Defense Communications
Bus & Motor
IDCSP, Unknown motor
Mass
45 kg wet, 45 kg dry
Launch date (UTC)
1967-01-18 (59 years ago)
Launch vehicle
TITAN IIIC
Launch site
Air Force Eastern Test Range (AFETR)
Object type
Payload
Rocket body
Debris
Shape & HBR
Ico Poly, 0.5 m
Radar Cross Section
0.926 m², Medium (>0.1 m² and < 1m²)

Expand to show TLE details & history
Last TLE update: 1 day ago

TLE from 1 day ago
0 OPS 9323 (IDSCS 10)
1 02650U 67003C   25260.87282156 -.00000120  00000-0  00000-0 0  9997
2 02650   7.7799  47.2141 0035049 106.3590 268.0120  1.08222230137503
Epoch: 2025-09-17T20:56Z
TLE epoch observation values (Epoch: 2025-09-17T20:56:51.782Z)
Latitude
1.85662°
Longitude
109.7932°
Altitude
33,700.414 km
Speed
3.153 km/s
True Right ascension
04h 04m 12s
True Declination
1° 51' 17"
Sunlit
Object was in daylight at epoch
Visualization orbit readout
Latitude
Unknown
Longitude
Unknown
Altitude
Unknown
Speed
Unknown
Apparent Right ascension
Unknown
Apparent Declination
Unknown
Sunlit
N/A
Visualization observer readout
Local Sidereal Time
21:19:42
Azimuth
Unknown
Elevation
Unknown
Doppler factor
Unknown
Orbital elements
Apogee altitude
33,836.937 km
Perigee altitude
33,556.022 km
Semi-major axis
40,074.616 km
Eccentricity
0.0035
Inclination
7.7799°
RAAN
47.2141°
Arg. of periapsis
106.359°
True anomaly
267.61067°
Mean anomaly
268.012°
Eccentric anomaly
267.81133°
Mean motion
0.27054 °/min
Orbital period
1,330.65 mins
BSTAR
0
Loading maneuver chart data...
Computing Atmospheric mass density...
Loading historical data...
Loading historical data...
Loading historical data...
Loading historical data...
Loading historical data...
Loading historical data...
Loading historical data...

Documentation

Showing up to 5 results
|